Regional Weather Roundup
Issued by NWS Spokane, WA

Current Version | Previous Version | Text Only | Print | Product List | Glossary On
Versions: 1 2 3 4 5 6 7 8 9 10 11 12 13 14 15 16 17 18 19 20 21 22 23 24 25 26 27 28 29 30 31 32 33 34 35 36 37 38 39 40 41 42 43 44 45 46 47 48 49 50
000
NZUS01 KOTX 261810
RWROTX

Eastern Washington/Northern Idaho Roundup
National Weather Service, Spokane WA
1100 AM PDT FRI AUG 26 2016

Note: "fair" indicated few or no clouds below 12,000 feet with no
significant weather and/or obstructions to visibility.

...Northeast Washington and Northern Idaho Panhandle...

CITY           SKY/WX    TMP DP  RH WIND       PRES   REMARKS
Spokane Intl   MOSUNNY   75  42  30 E3        30.00F
Spokane Downto SUNNY     77  40  26 VRB3      29.99F
Coeur d Alene  SUNNY     73  45  35 CALM      29.98F
Deer Park      SUNNY     75  38  26 CALM      30.00F
Sandpoint      SUNNY     72  46  40 E5        30.02F
Bonners Ferry    N/A     68  48  49 S3        30.02F

...Southeast Washington and southern Idaho Panhandle...

CITY           SKY/WX    TMP DP  RH WIND       PRES   REMARKS
Walla Walla    SUNNY     80  35  19 SW8       29.95F
Pullman/Moscow MOSUNNY   78  35  21 S6        30.03S
Lewiston       SUNNY     76  37  24 VRB3      29.98F
Lowell           N/A     71  39  31 CALM      30.01F
Grangeville    FAIR      72  34  25 CALM      30.04S

...Columbia Basin...

CITY           SKY/WX    TMP DP  RH WIND       PRES   REMARKS
Ephrata        SUNNY     80  42  25 VRB3      29.95F
Moses Lake     SUNNY     81  40  23 E5        29.96F
Pasco          SUNNY     79  44  28 VRB3      29.94F
Richland       CLEAR     80  46  31 CALM      29.93F
Hermiston      SUNNY     79  41  25 W6        29.94F
Pendleton      SUNNY     81  35  19 VRB3      29.96F

...East Slopes Cascades...

CITY           SKY/WX    TMP DP  RH WIND       PRES   REMARKS
The Dalles     SUNNY     80  43  26 CALM      29.93F
Yakima         SUNNY     84  48  28 NW5       29.95F
Ellensburg     SUNNY     78  48  34 SE6       29.98F
Stampede Pass  MOSUNNY   72  40  31 VRB3      30.09F
Wenatchee      SUNNY     77  49  37 VRB3      29.95F
Omak           SUNNY     80  41  24 N8        29.95F
Sunnyside        N/A     76  49  38 CALM      29.95F

...Southern British Columbia...

CITY           SKY/WX    TMP DP  RH WIND       PRES   REMARKS
Penticton      CLOUDY    77  50  38 NE7       29.95F
Castlegar      MOSUNNY   72  48  43 CALM      29.97F
Cranbrook      MOSUNNY   64  46  52 E9        30.05F
Osoyoos          N/A     77  48  36 S2          N/A
Creston          N/A     72  48  43 SW2         N/A

...Western Montana...

CITY           SKY/WX    TMP DP  RH WIND       PRES   REMARKS
Kalispell      PTCLDY    68  43  40 N10       30.06F
Libby            N/A     70  43  37 E5        30.04F
Missoula       MOSUNNY   67  39  35 CALM      30.08F

...Neighboring Cities...

CITY           SKY/WX    TMP DP  RH WIND       PRES   REMARKS
Seattle        PTSUNNY   76  53  44 NW6       29.95F
Portland       PTSUNNY   79  52  38 NW3       29.91F
Boise          SUNNY     75  32  20 CALM      30.00F
Great Falls    CLOUDY    62  42  47 N3        30.10F
Calgary        PTSUNNY   63  46  55 SE3       30.02F



USA.gov is the U.S. government's official web portal to all federal, state and local government web resources and services.